#datetime,building,power
2024-04-24T00:00:00,axn,26.91
2024-04-24T00:01:00,axn,27.07
2024-04-24T00:02:00,axn,26.93
2024-04-24T00:03:00,axn,26.84
2024-04-24T00:04:00,axn,26.82
2024-04-24T00:05:00,axn,37.37
2024-04-24T00:06:00,axn,37.43
2024-04-24T00:07:00,axn,37.38
2024-04-24T00:08:00,axn,37.69
2024-04-24T00:09:00,axn,27.03
2024-04-24T00:10:00,axn,27.08
2024-04-24T00:11:00,axn,26.94
2024-04-24T00:12:00,axn,27.03
2024-04-24T00:13:00,axn,26.99
2024-04-24T00:14:00,axn,26.94
2024-04-24T00:15:00,axn,27.10
2024-04-24T00:16:00,axn,27.38
2024-04-24T00:17:00,axn,27.46
2024-04-24T00:18:00,axn,27.27
2024-04-24T00:19:00,axn,27.26
2024-04-24T00:20:00,axn,27.52
2024-04-24T00:21:00,axn,28.01
2024-04-24T00:22:00,axn,27.57
2024-04-24T00:23:00,axn,27.63
2024-04-24T00:24:00,axn,27.67
2024-04-24T00:25:00,axn,27.57
2024-04-24T00:26:00,axn,27.43
2024-04-24T00:27:00,axn,27.67
2024-04-24T00:28:00,axn,27.85
2024-04-24T00:29:00,axn,27.76
2024-04-24T00:30:00,axn,27.79
2024-04-24T00:31:00,axn,27.68
2024-04-24T00:32:00,axn,27.23
2024-04-24T00:33:00,axn,27.01
2024-04-24T00:34:00,axn,27.06
2024-04-24T00:35:00,axn,26.97
2024-04-24T00:36:00,axn,27.07
2024-04-24T00:37:00,axn,27.02
2024-04-24T00:38:00,axn,27.03
2024-04-24T00:39:00,axn,26.76
2024-04-24T00:40:00,axn,26.68
2024-04-24T00:41:00,axn,26.82
2024-04-24T00:42:00,axn,26.72
2024-04-24T00:43:00,axn,27.07
2024-04-24T00:44:00,axn,27.16
2024-04-24T00:45:00,axn,26.74
2024-04-24T00:46:00,axn,26.78
2024-04-24T00:47:00,axn,26.72
2024-04-24T00:48:00,axn,26.01
2024-04-24T00:49:00,axn,26.11
2024-04-24T00:50:00,axn,26.12
2024-04-24T00:51:00,axn,26.16
2024-04-24T00:52:00,axn,26.23
2024-04-24T00:53:00,axn,25.93
2024-04-24T00:54:00,axn,25.91
2024-04-24T00:55:00,axn,25.95
2024-04-24T00:56:00,axn,25.88
2024-04-24T00:57:00,axn,26.07
2024-04-24T00:58:00,axn,26.43
2024-04-24T00:59:00,axn,26.00
2024-04-24T01:00:00,axn,25.96
2024-04-24T01:01:00,axn,25.81
2024-04-24T01:02:00,axn,25.64
2024-04-24T01:03:00,axn,25.61
2024-04-24T01:04:00,axn,25.56
2024-04-24T01:05:00,axn,25.70
2024-04-24T01:06:00,axn,25.40
2024-04-24T01:07:00,axn,25.43
2024-04-24T01:08:00,axn,25.67
2024-04-24T01:09:00,axn,25.02
2024-04-24T01:10:00,axn,25.51
2024-04-24T01:11:00,axn,25.26
2024-04-24T01:12:00,axn,25.16
2024-04-24T01:13:00,axn,24.95
2024-04-24T01:14:00,axn,25.64
2024-04-24T01:15:00,axn,25.08
2024-04-24T01:16:00,axn,25.44
2024-04-24T01:17:00,axn,25.76
2024-04-24T01:18:00,axn,25.42
2024-04-24T01:19:00,axn,25.47
2024-04-24T01:20:00,axn,26.19
2024-04-24T01:21:00,axn,25.21
2024-04-24T01:22:00,axn,25.29
2024-04-24T01:23:00,axn,25.38
2024-04-24T01:24:00,axn,25.52
2024-04-24T01:25:00,axn,25.53
2024-04-24T01:26:00,axn,25.89
2024-04-24T01:27:00,axn,25.49
2024-04-24T01:28:00,axn,25.44
2024-04-24T01:29:00,axn,25.47
2024-04-24T01:30:00,axn,25.36
2024-04-24T01:31:00,axn,25.86
2024-04-24T01:32:00,axn,26.01
2024-04-24T01:33:00,axn,25.85
2024-04-24T01:34:00,axn,25.63
2024-04-24T01:35:00,axn,25.64
2024-04-24T01:36:00,axn,25.61
2024-04-24T01:37:00,axn,25.64
2024-04-24T01:38:00,axn,25.77
2024-04-24T01:39:00,axn,25.53
2024-04-24T01:40:00,axn,26.09
2024-04-24T01:41:00,axn,25.64
2024-04-24T01:42:00,axn,25.74
2024-04-24T01:43:00,axn,25.38
2024-04-24T01:44:00,axn,25.31
2024-04-24T01:45:00,axn,25.28
2024-04-24T01:46:00,axn,25.45
2024-04-24T01:47:00,axn,28.48
2024-04-24T01:48:00,axn,28.18
2024-04-24T01:49:00,axn,25.68
2024-04-24T01:50:00,axn,25.39
2024-04-24T01:51:00,axn,25.45
2024-04-24T01:52:00,axn,25.43
2024-04-24T01:53:00,axn,25.41
2024-04-24T01:54:00,axn,25.50
2024-04-24T01:55:00,axn,25.42
2024-04-24T01:56:00,axn,25.72
2024-04-24T01:57:00,axn,25.70
2024-04-24T01:58:00,axn,25.81
2024-04-24T01:59:00,axn,26.14
2024-04-24T02:00:00,axn,26.01
2024-04-24T02:01:00,axn,25.66
2024-04-24T02:02:00,axn,25.62
2024-04-24T02:03:00,axn,25.61
2024-04-24T02:04:00,axn,25.54
2024-04-24T02:05:00,axn,25.56
2024-04-24T02:06:00,axn,25.65
2024-04-24T02:07:00,axn,26.19
2024-04-24T02:08:00,axn,25.45
2024-04-24T02:09:00,axn,25.39
2024-04-24T02:10:00,axn,25.25
2024-04-24T02:11:00,axn,25.50
2024-04-24T02:12:00,axn,25.22
2024-04-24T02:13:00,axn,25.21
2024-04-24T02:14:00,axn,25.44
2024-04-24T02:15:00,axn,25.51
2024-04-24T02:16:00,axn,25.41
2024-04-24T02:17:00,axn,25.32
2024-04-24T02:18:00,axn,25.58
2024-04-24T02:19:00,axn,25.21
2024-04-24T02:20:00,axn,25.51
2024-04-24T02:21:00,axn,25.27
2024-04-24T02:22:00,axn,26.10
2024-04-24T02:23:00,axn,25.40
2024-04-24T02:24:00,axn,25.41
2024-04-24T02:25:00,axn,25.46
2024-04-24T02:26:00,axn,25.19
2024-04-24T02:27:00,axn,25.18
2024-04-24T02:28:00,axn,25.32
2024-04-24T02:29:00,axn,25.72
2024-04-24T02:30:00,axn,25.49
2024-04-24T02:31:00,axn,25.59
2024-04-24T02:32:00,axn,25.97
2024-04-24T02:33:00,axn,25.68
2024-04-24T02:34:00,axn,25.87
2024-04-24T02:35:00,axn,25.84
2024-04-24T02:36:00,axn,25.73
2024-04-24T02:37:00,axn,25.33
2024-04-24T02:38:00,axn,25.23
2024-04-24T02:39:00,axn,25.46
2024-04-24T02:40:00,axn,25.38
2024-04-24T02:41:00,axn,25.31
2024-04-24T02:42:00,axn,25.07
2024-04-24T02:43:00,axn,25.34
2024-04-24T02:44:00,axn,25.10
2024-04-24T02:45:00,axn,25.12
2024-04-24T02:46:00,axn,25.13
2024-04-24T02:47:00,axn,25.11
2024-04-24T02:48:00,axn,25.16
2024-04-24T02:49:00,axn,25.04
2024-04-24T02:50:00,axn,25.10
2024-04-24T02:51:00,axn,25.34
2024-04-24T02:52:00,axn,24.74
2024-04-24T02:53:00,axn,24.85
2024-04-24T02:54:00,axn,24.82
2024-04-24T02:55:00,axn,25.26
2024-04-24T02:56:00,axn,25.68
2024-04-24T02:57:00,axn,25.32
2024-04-24T02:58:00,axn,25.13
2024-04-24T02:59:00,axn,25.85
2024-04-24T03:00:00,axn,24.49
2024-04-24T03:01:00,axn,39.10
2024-04-24T03:02:00,axn,39.21
2024-04-24T03:03:00,axn,39.19
2024-04-24T03:04:00,axn,39.26
2024-04-24T03:05:00,axn,39.05
2024-04-24T03:06:00,axn,25.11
2024-04-24T03:07:00,axn,24.88
2024-04-24T03:08:00,axn,25.52
2024-04-24T03:09:00,axn,25.07
2024-04-24T03:10:00,axn,24.94
2024-04-24T03:11:00,axn,24.96
2024-04-24T03:12:00,axn,25.29
2024-04-24T03:13:00,axn,25.09
2024-04-24T03:14:00,axn,24.65
2024-04-24T03:15:00,axn,24.58
2024-04-24T03:16:00,axn,25.08
2024-04-24T03:17:00,axn,24.70
2024-04-24T03:18:00,axn,24.82
2024-04-24T03:19:00,axn,24.77
2024-04-24T03:20:00,axn,24.71
2024-04-24T03:21:00,axn,24.72
2024-04-24T03:22:00,axn,24.88
2024-04-24T03:23:00,axn,25.16
2024-04-24T03:24:00,axn,25.29
2024-04-24T03:25:00,axn,25.69
2024-04-24T03:26:00,axn,25.24
2024-04-24T03:27:00,axn,25.08
2024-04-24T03:28:00,axn,25.14
2024-04-24T03:29:00,axn,25.05
2024-04-24T03:30:00,axn,25.07
2024-04-24T03:31:00,axn,25.07
2024-04-24T03:32:00,axn,25.23
2024-04-24T03:33:00,axn,24.85
2024-04-24T03:34:00,axn,24.76
2024-04-24T03:35:00,axn,24.92
2024-04-24T03:36:00,axn,24.66
2024-04-24T03:37:00,axn,24.73
2024-04-24T03:38:00,axn,24.70
2024-04-24T03:39:00,axn,24.82
2024-04-24T03:40:00,axn,24.64
2024-04-24T03:41:00,axn,24.48
2024-04-24T03:42:00,axn,24.88
2024-04-24T03:43:00,axn,24.61
2024-04-24T03:44:00,axn,24.60
2024-04-24T03:45:00,axn,24.56
2024-04-24T03:46:00,axn,24.63
2024-04-24T03:47:00,axn,24.81
2024-04-24T03:48:00,axn,24.82
2024-04-24T03:49:00,axn,25.17
2024-04-24T03:50:00,axn,24.58
2024-04-24T03:51:00,axn,25.53
2024-04-24T03:52:00,axn,25.62
2024-04-24T03:53:00,axn,25.51
2024-04-24T03:54:00,axn,25.66
2024-04-24T03:55:00,axn,25.68
2024-04-24T03:56:00,axn,25.85
2024-04-24T03:57:00,axn,25.82
2024-04-24T03:58:00,axn,25.88
2024-04-24T03:59:00,axn,25.77
2024-04-24T04:00:00,axn,25.94
2024-04-24T04:01:00,axn,25.91
2024-04-24T04:02:00,axn,25.90
2024-04-24T04:03:00,axn,25.80
2024-04-24T04:04:00,axn,25.75
2024-04-24T04:05:00,axn,26.25
2024-04-24T04:06:00,axn,25.86
2024-04-24T04:07:00,axn,26.61
2024-04-24T04:08:00,axn,26.06
2024-04-24T04:09:00,axn,26.31
2024-04-24T04:10:00,axn,25.97
2024-04-24T04:11:00,axn,26.72
2024-04-24T04:12:00,axn,26.10
2024-04-24T04:13:00,axn,25.94
2024-04-24T04:14:00,axn,25.95
2024-04-24T04:15:00,axn,25.82
2024-04-24T04:16:00,axn,25.98
2024-04-24T04:17:00,axn,25.84
2024-04-24T04:18:00,axn,25.61
2024-04-24T04:19:00,axn,25.81
2024-04-24T04:20:00,axn,25.95
2024-04-24T04:21:00,axn,25.73
2024-04-24T04:22:00,axn,25.73
2024-04-24T04:23:00,axn,25.98
2024-04-24T04:24:00,axn,25.57
2024-04-24T04:25:00,axn,25.52
2024-04-24T04:26:00,axn,30.91
2024-04-24T04:27:00,axn,25.73
2024-04-24T04:28:00,axn,25.68
2024-04-24T04:29:00,axn,25.55
2024-04-24T04:30:00,axn,25.84
2024-04-24T04:31:00,axn,26.03
2024-04-24T04:32:00,axn,26.08
2024-04-24T04:33:00,axn,25.94
2024-04-24T04:34:00,axn,26.64
2024-04-24T04:35:00,axn,26.19
2024-04-24T04:36:00,axn,26.28
2024-04-24T04:37:00,axn,26.22
2024-04-24T04:38:00,axn,26.28
2024-04-24T04:39:00,axn,26.14
2024-04-24T04:40:00,axn,26.08
2024-04-24T04:41:00,axn,26.29
2024-04-24T04:42:00,axn,32.07
2024-04-24T04:43:00,axn,32.15
2024-04-24T04:44:00,axn,32.46
2024-04-24T04:45:00,axn,32.81
2024-04-24T04:46:00,axn,26.58
2024-04-24T04:47:00,axn,26.85
2024-04-24T04:48:00,axn,26.88
2024-04-24T04:49:00,axn,26.22
2024-04-24T04:50:00,axn,26.36
2024-04-24T04:51:00,axn,25.99
2024-04-24T04:52:00,axn,25.50
2024-04-24T04:53:00,axn,25.65
2024-04-24T04:54:00,axn,26.15
2024-04-24T04:55:00,axn,25.89
2024-04-24T04:56:00,axn,26.92
2024-04-24T04:57:00,axn,27.29
2024-04-24T04:58:00,axn,26.78
2024-04-24T04:59:00,axn,26.99
2024-04-24T05:00:00,axn,27.19
2024-04-24T05:01:00,axn,25.28
2024-04-24T05:02:00,axn,30.25
2024-04-24T05:03:00,axn,30.51
2024-04-24T05:04:00,axn,30.26
2024-04-24T05:05:00,axn,47.32
2024-04-24T05:06:00,axn,30.07
2024-04-24T05:07:00,axn,30.13
2024-04-24T05:08:00,axn,30.18
2024-04-24T05:09:00,axn,30.01
2024-04-24T05:10:00,axn,30.05
2024-04-24T05:11:00,axn,25.61
2024-04-24T05:12:00,axn,25.29
2024-04-24T05:13:00,axn,25.44
2024-04-24T05:14:00,axn,26.79
2024-04-24T05:15:00,axn,26.44
2024-04-24T05:16:00,axn,26.33
2024-04-24T05:17:00,axn,25.43
2024-04-24T05:18:00,axn,25.45
2024-04-24T05:19:00,axn,25.49
2024-04-24T05:20:00,axn,25.47
2024-04-24T05:21:00,axn,25.88
2024-04-24T05:22:00,axn,25.88
2024-04-24T05:23:00,axn,25.81
2024-04-24T05:24:00,axn,26.57
2024-04-24T05:25:00,axn,26.55
2024-04-24T05:26:00,axn,26.89
2024-04-24T05:27:00,axn,27.18
2024-04-24T05:28:00,axn,32.34
2024-04-24T05:29:00,axn,31.91
2024-04-24T05:30:00,axn,27.43
2024-04-24T05:31:00,axn,28.63
2024-04-24T05:32:00,axn,28.43
2024-04-24T05:33:00,axn,44.51
2024-04-24T05:34:00,axn,30.19
2024-04-24T05:35:00,axn,30.65
2024-04-24T05:36:00,axn,30.45
2024-04-24T05:37:00,axn,30.35
2024-04-24T05:38:00,axn,30.29
2024-04-24T05:39:00,axn,41.72
2024-04-24T05:40:00,axn,30.40
2024-04-24T05:41:00,axn,30.11
2024-04-24T05:42:00,axn,30.28
2024-04-24T05:43:00,axn,30.22
2024-04-24T05:44:00,axn,30.20
2024-04-24T05:45:00,axn,30.13
2024-04-24T05:46:00,axn,30.25
2024-04-24T05:47:00,axn,30.75
2024-04-24T05:48:00,axn,30.48
2024-04-24T05:49:00,axn,30.01
2024-04-24T05:50:00,axn,30.12
2024-04-24T05:51:00,axn,30.41
2024-04-24T05:52:00,axn,30.25
2024-04-24T05:53:00,axn,29.80
2024-04-24T05:54:00,axn,29.94
2024-04-24T05:55:00,axn,29.76
2024-04-24T05:56:00,axn,29.65
2024-04-24T05:57:00,axn,29.74
2024-04-24T05:58:00,axn,34.18
2024-04-24T05:59:00,axn,33.73
2024-04-24T06:00:00,axn,29.17
2024-04-24T06:01:00,axn,29.14
2024-04-24T06:02:00,axn,29.01
2024-04-24T06:03:00,axn,28.97
2024-04-24T06:04:00,axn,29.19
2024-04-24T06:05:00,axn,28.84
2024-04-24T06:06:00,axn,29.41
2024-04-24T06:07:00,axn,29.21
2024-04-24T06:08:00,axn,29.26
2024-04-24T06:09:00,axn,29.04
2024-04-24T06:10:00,axn,29.12
2024-04-24T06:11:00,axn,28.71
2024-04-24T06:12:00,axn,28.82
2024-04-24T06:13:00,axn,28.71
2024-04-24T06:14:00,axn,28.78
2024-04-24T06:15:00,axn,28.71
2024-04-24T06:16:00,axn,28.42
2024-04-24T06:17:00,axn,28.36
2024-04-24T06:18:00,axn,28.42
2024-04-24T06:19:00,axn,28.92
2024-04-24T06:20:00,axn,28.46
2024-04-24T06:21:00,axn,29.13
2024-04-24T06:22:00,axn,28.75
2024-04-24T06:23:00,axn,29.76
2024-04-24T06:24:00,axn,29.81
2024-04-24T06:25:00,axn,30.36
2024-04-24T06:26:00,axn,29.83
2024-04-24T06:27:00,axn,32.84
2024-04-24T06:28:00,axn,41.96
2024-04-24T06:29:00,axn,33.69
2024-04-24T06:30:00,axn,33.66
2024-04-24T06:31:00,axn,33.80
2024-04-24T06:32:00,axn,34.01
2024-04-24T06:33:00,axn,34.00
2024-04-24T06:34:00,axn,33.79
2024-04-24T06:35:00,axn,33.63
2024-04-24T06:36:00,axn,29.42
2024-04-24T06:37:00,axn,29.43
2024-04-24T06:38:00,axn,29.10
2024-04-24T06:39:00,axn,29.11
2024-04-24T06:40:00,axn,29.00
2024-04-24T06:41:00,axn,29.30
2024-04-24T06:42:00,axn,28.87
2024-04-24T06:43:00,axn,29.10
2024-04-24T06:44:00,axn,29.41
2024-04-24T06:45:00,axn,29.42
2024-04-24T06:46:00,axn,28.80
2024-04-24T06:47:00,axn,28.49
2024-04-24T06:48:00,axn,28.52
2024-04-24T06:49:00,axn,28.38
2024-04-24T06:50:00,axn,28.50
2024-04-24T06:51:00,axn,28.49
2024-04-24T06:52:00,axn,32.85
2024-04-24T06:53:00,axn,33.24
2024-04-24T06:54:00,axn,28.85
2024-04-24T06:55:00,axn,28.27
2024-04-24T06:56:00,axn,28.20
2024-04-24T06:57:00,axn,28.21
2024-04-24T06:58:00,axn,29.12
2024-04-24T06:59:00,axn,29.51
2024-04-24T07:00:00,axn,28.43
2024-04-24T07:01:00,axn,31.24
2024-04-24T07:02:00,axn,45.88
2024-04-24T07:03:00,axn,44.95
2024-04-24T07:04:00,axn,45.04
2024-04-24T07:05:00,axn,44.03
2024-04-24T07:06:00,axn,37.68
2024-04-24T07:07:00,axn,32.35
2024-04-24T07:08:00,axn,30.10
2024-04-24T07:09:00,axn,30.61
2024-04-24T07:10:00,axn,31.72
2024-04-24T07:11:00,axn,31.07
2024-04-24T07:12:00,axn,29.97
2024-04-24T07:13:00,axn,31.82
2024-04-24T07:14:00,axn,32.84
2024-04-24T07:15:00,axn,32.12
2024-04-24T07:16:00,axn,49.15
2024-04-24T07:17:00,axn,31.77
2024-04-24T07:18:00,axn,31.66
2024-04-24T07:19:00,axn,31.89
2024-04-24T07:20:00,axn,31.80
2024-04-24T07:21:00,axn,42.25
2024-04-24T07:22:00,axn,42.14
2024-04-24T07:23:00,axn,37.83
2024-04-24T07:24:00,axn,37.77
2024-04-24T07:25:00,axn,31.78
2024-04-24T07:26:00,axn,31.56
2024-04-24T07:27:00,axn,31.87
2024-04-24T07:28:00,axn,31.97
2024-04-24T07:29:00,axn,31.57
2024-04-24T07:30:00,axn,31.55
2024-04-24T07:31:00,axn,31.74
2024-04-24T07:32:00,axn,31.41
2024-04-24T07:33:00,axn,31.62
2024-04-24T07:34:00,axn,31.69
2024-04-24T07:35:00,axn,31.78
2024-04-24T07:36:00,axn,31.58
2024-04-24T07:37:00,axn,31.90
2024-04-24T07:38:00,axn,31.57
2024-04-24T07:39:00,axn,31.25
2024-04-24T07:40:00,axn,31.12
2024-04-24T07:41:00,axn,32.18
2024-04-24T07:42:00,axn,31.33
2024-04-24T07:43:00,axn,31.64
2024-04-24T07:44:00,axn,31.69
2024-04-24T07:45:00,axn,31.36
2024-04-24T07:46:00,axn,31.36
2024-04-24T07:47:00,axn,31.27
2024-04-24T07:48:00,axn,31.42
2024-04-24T07:49:00,axn,31.16
2024-04-24T07:50:00,axn,30.93
2024-04-24T07:51:00,axn,35.29
2024-04-24T07:52:00,axn,35.44
2024-04-24T07:53:00,axn,48.52
2024-04-24T07:54:00,axn,45.21
2024-04-24T07:55:00,axn,45.15
2024-04-24T07:56:00,axn,45.27
2024-04-24T07:57:00,axn,45.15
2024-04-24T07:58:00,axn,44.75
2024-04-24T07:59:00,axn,31.13
2024-04-24T08:00:00,axn,31.27
2024-04-24T08:01:00,axn,32.89
2024-04-24T08:02:00,axn,44.84
2024-04-24T08:03:00,axn,44.98
2024-04-24T08:04:00,axn,44.37
2024-04-24T08:05:00,axn,45.22
2024-04-24T08:06:00,axn,44.69
2024-04-24T08:07:00,axn,45.08
2024-04-24T08:08:00,axn,45.05
2024-04-24T08:09:00,axn,44.77
2024-04-24T08:10:00,axn,45.27
2024-04-24T08:11:00,axn,46.08
2024-04-24T08:12:00,axn,45.76
2024-04-24T08:13:00,axn,46.57
2024-04-24T08:14:00,axn,47.60
2024-04-24T08:15:00,axn,46.96
2024-04-24T08:16:00,axn,47.45
2024-04-24T08:17:00,axn,47.68
2024-04-24T08:18:00,axn,47.36
2024-04-24T08:19:00,axn,47.23
2024-04-24T08:20:00,axn,62.54
2024-04-24T08:21:00,axn,47.48
2024-04-24T08:22:00,axn,47.94
2024-04-24T08:23:00,axn,51.77
2024-04-24T08:24:00,axn,47.23
2024-04-24T08:25:00,axn,47.18
2024-04-24T08:26:00,axn,47.78
2024-04-24T08:27:00,axn,47.65
2024-04-24T08:28:00,axn,47.62
2024-04-24T08:29:00,axn,47.52
2024-04-24T08:30:00,axn,52.74
2024-04-24T08:31:00,axn,47.82
2024-04-24T08:32:00,axn,47.29
2024-04-24T08:33:00,axn,47.32
2024-04-24T08:34:00,axn,47.21
2024-04-24T08:35:00,axn,47.52
2024-04-24T08:36:00,axn,47.76
2024-04-24T08:37:00,axn,47.69
2024-04-24T08:38:00,axn,47.67
2024-04-24T08:39:00,axn,47.97
2024-04-24T08:40:00,axn,47.86
2024-04-24T08:41:00,axn,39.57
2024-04-24T08:42:00,axn,39.85
2024-04-24T08:43:00,axn,39.56
2024-04-24T08:44:00,axn,39.86
2024-04-24T08:45:00,axn,39.52
2024-04-24T08:46:00,axn,39.50
2024-04-24T08:47:00,axn,39.76
2024-04-24T08:48:00,axn,39.64
2024-04-24T08:49:00,axn,39.83
2024-04-24T08:50:00,axn,39.56
2024-04-24T08:51:00,axn,39.79
2024-04-24T08:52:00,axn,39.88
2024-04-24T08:53:00,axn,44.21
2024-04-24T08:54:00,axn,44.19
2024-04-24T08:55:00,axn,39.49
2024-04-24T08:56:00,axn,38.89
2024-04-24T08:57:00,axn,51.30
2024-04-24T08:58:00,axn,40.17
2024-04-24T08:59:00,axn,40.32
2024-04-24T09:00:00,axn,40.34
2024-04-24T09:01:00,axn,40.47
2024-04-24T09:02:00,axn,40.62
2024-04-24T09:03:00,axn,40.48
2024-04-24T09:04:00,axn,39.96
2024-04-24T09:05:00,axn,40.47
2024-04-24T09:06:00,axn,40.47
2024-04-24T09:07:00,axn,56.31
2024-04-24T09:08:00,axn,39.21
2024-04-24T09:09:00,axn,40.23
2024-04-24T09:10:00,axn,40.35
2024-04-24T09:11:00,axn,39.95
2024-04-24T09:12:00,axn,39.96
2024-04-24T09:13:00,axn,40.04
2024-04-24T09:14:00,axn,40.23
2024-04-24T09:15:00,axn,40.02
2024-04-24T09:16:00,axn,40.75
2024-04-24T09:17:00,axn,40.22
2024-04-24T09:18:00,axn,40.11
2024-04-24T09:19:00,axn,40.15
2024-04-24T09:20:00,axn,40.34
2024-04-24T09:21:00,axn,40.21
2024-04-24T09:22:00,axn,44.90
2024-04-24T09:23:00,axn,39.72
2024-04-24T09:24:00,axn,40.15
2024-04-24T09:25:00,axn,39.66
2024-04-24T09:26:00,axn,50.81
2024-04-24T09:27:00,axn,42.83
2024-04-24T09:28:00,axn,41.22
2024-04-24T09:29:00,axn,40.80
2024-04-24T09:30:00,axn,40.89
2024-04-24T09:31:00,axn,40.94
2024-04-24T09:32:00,axn,40.98
2024-04-24T09:33:00,axn,40.71
2024-04-24T09:34:00,axn,42.18
2024-04-24T09:35:00,axn,42.72
2024-04-24T09:36:00,axn,42.11
2024-04-24T09:37:00,axn,42.35
2024-04-24T09:38:00,axn,42.23
2024-04-24T09:39:00,axn,42.77
2024-04-24T09:40:00,axn,42.31
2024-04-24T09:41:00,axn,42.83
2024-04-24T09:42:00,axn,42.53
2024-04-24T09:43:00,axn,42.37
2024-04-24T09:44:00,axn,43.51
2024-04-24T09:45:00,axn,44.67
2024-04-24T09:46:00,axn,44.84
2024-04-24T09:47:00,axn,44.77
2024-04-24T09:48:00,axn,44.79
2024-04-24T09:49:00,axn,44.29
2024-04-24T09:50:00,axn,49.45
2024-04-24T09:51:00,axn,49.44
2024-04-24T09:52:00,axn,44.96
2024-04-24T09:53:00,axn,45.34
2024-04-24T09:54:00,axn,45.24
2024-04-24T09:55:00,axn,44.68
2024-04-24T09:56:00,axn,45.06
2024-04-24T09:57:00,axn,45.28
2024-04-24T09:58:00,axn,45.38
2024-04-24T09:59:00,axn,45.61
2024-04-24T10:00:00,axn,45.54
2024-04-24T10:01:00,axn,45.54
2024-04-24T10:02:00,axn,45.85
2024-04-24T10:03:00,axn,45.58
2024-04-24T10:04:00,axn,45.58
2024-04-24T10:05:00,axn,45.77
2024-04-24T10:06:00,axn,45.66
2024-04-24T10:07:00,axn,45.91
2024-04-24T10:08:00,axn,45.96
2024-04-24T10:09:00,axn,45.85
2024-04-24T10:10:00,axn,45.95
2024-04-24T10:11:00,axn,45.98
2024-04-24T10:12:00,axn,46.05
2024-04-24T10:13:00,axn,46.15
2024-04-24T10:14:00,axn,46.32
2024-04-24T10:15:00,axn,46.68
2024-04-24T10:16:00,axn,46.39
2024-04-24T10:17:00,axn,46.00
2024-04-24T10:18:00,axn,46.25
2024-04-24T10:19:00,axn,50.60
2024-04-24T10:20:00,axn,50.64
2024-04-24T10:21:00,axn,46.08
2024-04-24T10:22:00,axn,46.04
2024-04-24T10:23:00,axn,63.19
2024-04-24T10:24:00,axn,47.43
2024-04-24T10:25:00,axn,46.13
2024-04-24T10:26:00,axn,46.33
2024-04-24T10:27:00,axn,46.48
2024-04-24T10:28:00,axn,46.98
2024-04-24T10:29:00,axn,46.03
2024-04-24T10:30:00,axn,46.04
2024-04-24T10:31:00,axn,47.76
2024-04-24T10:32:00,axn,58.66
2024-04-24T10:33:00,axn,45.54
2024-04-24T10:34:00,axn,46.61
2024-04-24T10:35:00,axn,45.70
2024-04-24T10:36:00,axn,45.72
2024-04-24T10:37:00,axn,46.11
2024-04-24T10:38:00,axn,52.05
2024-04-24T10:39:00,axn,51.74
2024-04-24T10:40:00,axn,51.36
2024-04-24T10:41:00,axn,45.48
2024-04-24T10:42:00,axn,45.20
2024-04-24T10:43:00,axn,45.33
2024-04-24T10:44:00,axn,49.98
2024-04-24T10:45:00,axn,49.59
2024-04-24T10:46:00,axn,45.12
2024-04-24T10:47:00,axn,44.90
2024-04-24T10:48:00,axn,45.66
2024-04-24T10:49:00,axn,45.40
2024-04-24T10:50:00,axn,47.14
2024-04-24T10:51:00,axn,44.95
2024-04-24T10:52:00,axn,45.02
2024-04-24T10:53:00,axn,44.83
2024-04-24T10:54:00,axn,44.80
2024-04-24T10:55:00,axn,45.77
2024-04-24T10:56:00,axn,44.99
2024-04-24T10:57:00,axn,44.83
2024-04-24T10:58:00,axn,44.96
2024-04-24T10:59:00,axn,46.64
2024-04-24T11:00:00,axn,45.15
2024-04-24T11:01:00,axn,44.75
2024-04-24T11:02:00,axn,44.67
2024-04-24T11:03:00,axn,44.86
2024-04-24T11:04:00,axn,45.51
2024-04-24T11:05:00,axn,44.59
2024-04-24T11:06:00,axn,44.70
2024-04-24T11:07:00,axn,50.19
2024-04-24T11:08:00,axn,49.70
2024-04-24T11:09:00,axn,45.38
2024-04-24T11:10:00,axn,45.20
2024-04-24T11:11:00,axn,45.07
2024-04-24T11:12:00,axn,44.60
2024-04-24T11:13:00,axn,44.85
2024-04-24T11:14:00,axn,44.90
2024-04-24T11:15:00,axn,44.74
2024-04-24T11:16:00,axn,59.45
2024-04-24T11:17:00,axn,44.82
2024-04-24T11:18:00,axn,44.76
2024-04-24T11:19:00,axn,44.76
2024-04-24T11:20:00,axn,44.64
2024-04-24T11:21:00,axn,44.31
2024-04-24T11:22:00,axn,45.12
2024-04-24T11:23:00,axn,45.78
2024-04-24T11:24:00,axn,44.66
2024-04-24T11:25:00,axn,44.69
2024-04-24T11:26:00,axn,49.02
2024-04-24T11:27:00,axn,45.06
2024-04-24T11:28:00,axn,44.23
2024-04-24T11:29:00,axn,46.98
2024-04-24T11:30:00,axn,61.63
2024-04-24T11:31:00,axn,58.71
2024-04-24T11:32:00,axn,58.83
2024-04-24T11:33:00,axn,59.10
2024-04-24T11:34:00,axn,59.18
2024-04-24T11:35:00,axn,59.16
2024-04-24T11:36:00,axn,45.27
2024-04-24T11:37:00,axn,45.83
2024-04-24T11:38:00,axn,45.72
2024-04-24T11:39:00,axn,45.79
2024-04-24T11:40:00,axn,45.41
2024-04-24T11:41:00,axn,53.71
2024-04-24T11:42:00,axn,45.12
2024-04-24T11:43:00,axn,44.81
2024-04-24T11:44:00,axn,45.05
2024-04-24T11:45:00,axn,44.85
2024-04-24T11:46:00,axn,49.54
2024-04-24T11:47:00,axn,44.88
2024-04-24T11:48:00,axn,45.44
2024-04-24T11:49:00,axn,45.51
2024-04-24T11:50:00,axn,45.80
2024-04-24T11:51:00,axn,45.57
2024-04-24T11:52:00,axn,46.04
2024-04-24T11:53:00,axn,45.89
2024-04-24T11:54:00,axn,46.48
2024-04-24T11:55:00,axn,46.50
2024-04-24T11:56:00,axn,45.48
2024-04-24T11:57:00,axn,45.70
2024-04-24T11:58:00,axn,45.65
2024-04-24T11:59:00,axn,45.59
2024-04-24T12:00:00,axn,45.36
2024-04-24T12:01:00,axn,45.86
2024-04-24T12:02:00,axn,45.85
2024-04-24T12:03:00,axn,45.91
2024-04-24T12:04:00,axn,46.59
2024-04-24T12:05:00,axn,46.11
2024-04-24T12:06:00,axn,46.43
2024-04-24T12:07:00,axn,45.94
2024-04-24T12:08:00,axn,44.86
2024-04-24T12:09:00,axn,44.54
2024-04-24T12:10:00,axn,50.15
2024-04-24T12:11:00,axn,49.88
2024-04-24T12:12:00,axn,55.17
2024-04-24T12:13:00,axn,55.74
2024-04-24T12:14:00,axn,55.47
2024-04-24T12:15:00,axn,55.41
2024-04-24T12:16:00,axn,55.64
2024-04-24T12:17:00,axn,44.88
2024-04-24T12:18:00,axn,45.99
2024-04-24T12:19:00,axn,46.72
2024-04-24T12:20:00,axn,47.10
2024-04-24T12:21:00,axn,47.03
2024-04-24T12:22:00,axn,46.19
2024-04-24T12:23:00,axn,44.66
2024-04-24T12:24:00,axn,45.20
2024-04-24T12:25:00,axn,45.12
2024-04-24T12:26:00,axn,44.41
2024-04-24T12:27:00,axn,44.49
2024-04-24T12:28:00,axn,43.74
2024-04-24T12:29:00,axn,44.17
2024-04-24T12:30:00,axn,44.97
2024-04-24T12:31:00,axn,43.45
2024-04-24T12:32:00,axn,44.56
2024-04-24T12:33:00,axn,43.05
2024-04-24T12:34:00,axn,47.43
2024-04-24T12:35:00,axn,49.46
2024-04-24T12:36:00,axn,43.05
2024-04-24T12:37:00,axn,44.00
2024-04-24T12:38:00,axn,44.66
2024-04-24T12:39:00,axn,44.69
2024-04-24T12:40:00,axn,44.05
2024-04-24T12:41:00,axn,43.52
2024-04-24T12:42:00,axn,42.60
2024-04-24T12:43:00,axn,43.78
2024-04-24T12:44:00,axn,43.68
2024-04-24T12:45:00,axn,43.85
2024-04-24T12:46:00,axn,43.86
2024-04-24T12:47:00,axn,43.74
2024-04-24T12:48:00,axn,43.99
2024-04-24T12:49:00,axn,44.01
2024-04-24T12:50:00,axn,44.05
2024-04-24T12:51:00,axn,44.33
2024-04-24T12:52:00,axn,44.07
2024-04-24T12:53:00,axn,43.98
2024-04-24T12:54:00,axn,44.43
2024-04-24T12:55:00,axn,44.85
2024-04-24T12:56:00,axn,43.87
2024-04-24T12:57:00,axn,44.00
2024-04-24T12:58:00,axn,44.18
2024-04-24T12:59:00,axn,43.94
2024-04-24T13:00:00,axn,44.00
2024-04-24T13:01:00,axn,44.02
2024-04-24T13:02:00,axn,43.79
2024-04-24T13:03:00,axn,49.24
2024-04-24T13:04:00,axn,48.97
2024-04-24T13:05:00,axn,44.45
2024-04-24T13:06:00,axn,44.66
2024-04-24T13:07:00,axn,44.84
2024-04-24T13:08:00,axn,44.27
2024-04-24T13:09:00,axn,44.42
2024-04-24T13:10:00,axn,44.61
2024-04-24T13:11:00,axn,44.46
2024-04-24T13:12:00,axn,44.41
2024-04-24T13:13:00,axn,44.48
2024-04-24T13:14:00,axn,44.82
2024-04-24T13:15:00,axn,60.50
2024-04-24T13:16:00,axn,44.84
2024-04-24T13:17:00,axn,48.22
2024-04-24T13:18:00,axn,47.55